Ionia, MI

4:23 PM EDT on July 21, 2017 (GMT -0400)
Ionia

Weather History for KY70 - November, 2013

Change the Weather History Date:

Saturday, November 23, 2013

  Actual Average (KGRR) Record (KGRR)
Temperature  
Mean Temperature 22 °F -  
Max Temperature 28 °F 42 °F 70 °F (1931)
Min Temperature 17 °F 30 °F 2 °F (1956)
Degree Days  
Heating Degree Days 42    
Moisture  
Dew Point 16 °F    
Average Humidity 71    
Maximum Humidity 90    
Minimum Humidity 47    
Precipitation  
Precipitation 0.00 in - - ()
Sea Level Pressure  
Sea Level Pressure 30.39 in    
Wind  
Wind Speed 11 mph (NW)    
Max Wind Speed 22 mph    
Max Gust Speed 36 mph    
Visibility 10 miles    
Events Snow    
Averages and records for this station are not official NWS values.
T = Trace of Precipitation, MM = Missing Value Source: NWS Daily Summary

Daily Weather History Graph

Daily Weather History Graph

Search for Another Location

Airport or City:

Trip Planner

Search our weather history database for the weather conditions in past years. The results will help you decide how hot, cold, wet, or windy it might be!

Date:

Astronomy

Nov. 23, 2013 Rise Set
Actual Time 7:42 AM EST 5:10 PM EST
Civil Twilight 7:11 AM EST 5:41 PM EST
Nautical Twilight 6:36 AM EST 6:16 PM EST
Astronomical Twilight 6:02 AM EST 6:50 PM EST
Moon 10:41 PM EST (11/23) 11:56 AM EST (11/23)
Length of Visible Light 10h 30m
Length of Day
9h 27m
Waning Gibbous, 70% of the Moon is Illuminated
Nov 23
Waning Gibbous
Nov 25
Last Quarter
Dec 2
New
Dec 9
First Quarter
Dec 17
Full

Hourly Weather History & Observations

Time (EST) Temp. Windchill Dew Point Humidity Pressure Visibility Wind Dir Wind Speed Gust Speed Precip Events Conditions
12:14 AM 26.6 °F 20.0 °F 23.9 °F 90% 30.33 in 10.0 mi SW 5.8 mph - N/A   Scattered Clouds
12:34 AM 28.2 °F 20.2 °F 25.3 °F 89% 30.33 in 10.0 mi SW 8.1 mph - N/A   Mostly Cloudy
12:54 AM 27.9 °F 19.8 °F 24.8 °F 88% 30.32 in 10.0 mi SW 8.1 mph - N/A   Scattered Clouds
1:14 AM 28.0 °F 20.0 °F 25.0 °F 88% 30.32 in 10.0 mi SW 8.1 mph - N/A   Scattered Clouds
1:34 AM 27.9 °F 19.8 °F 24.8 °F 88% 30.31 in 10.0 mi WSW 8.1 mph - N/A   Clear
1:54 AM 27.9 °F 19.1 °F 25.2 °F 90% 30.30 in 10.0 mi WSW 9.2 mph - N/A   Clear
2:14 AM 27.3 °F 18.4 °F 24.8 °F 90% 30.29 in 10.0 mi WSW 9.2 mph - N/A   Clear
2:34 AM 27.3 °F 18.4 °F 24.8 °F 90% 30.29 in 10.0 mi West 9.2 mph - N/A   Clear
2:54 AM 27.3 °F 18.4 °F 24.4 °F 89% 30.29 in 10.0 mi West 9.2 mph - N/A   Clear
3:14 AM 27.5 °F 18.6 °F 23.9 °F 86% 30.29 in 10.0 mi West 9.2 mph - N/A   Clear
3:34 AM 28.9 °F 19.8 °F 23.4 °F 80% 30.28 in 10.0 mi West 10.4 mph - N/A   Clear
3:54 AM 28.4 °F 19.1 °F 22.6 °F 79% 30.28 in 10.0 mi West 10.4 mph - N/A   Clear
4:14 AM 28.6 °F 18.7 °F 21.7 °F 76% 30.27 in 10.0 mi West 11.5 mph - N/A   Clear
4:34 AM 28.4 °F 19.7 °F 21.2 °F 74% 30.27 in 10.0 mi West 9.2 mph - N/A   Clear
4:54 AM 28.2 °F 18.9 °F 21.0 °F 74% 30.27 in 10.0 mi West 10.4 mph - N/A   Clear
5:14 AM 28.2 °F 21.0 °F 21.2 °F 75% 30.27 in 10.0 mi West 6.9 mph - N/A   Mostly Cloudy
5:34 AM 28.4 °F 19.7 °F 21.2 °F 74% 30.27 in 10.0 mi WNW 9.2 mph - N/A   Overcast
5:54 AM 28.4 °F 19.1 °F 20.5 °F 72% 30.28 in 10.0 mi WNW 10.4 mph - N/A   Overcast
6:14 AM 28.8 °F 19.5 °F 21.0 °F 73% 30.28 in 10.0 mi WNW 10.4 mph - N/A   Overcast
6:34 AM 28.9 °F 20.4 °F 21.2 °F 73% 30.28 in 10.0 mi WNW 9.2 mph - N/A   Overcast
6:54 AM 28.9 °F 20.4 °F 21.2 °F 73% 30.28 in 10.0 mi NW 9.2 mph - N/A   Overcast
7:14 AM 28.9 °F 19.8 °F 21.2 °F 73% 30.28 in 10.0 mi WNW 10.4 mph - N/A   Overcast
7:34 AM 28.6 °F 17.2 °F 21.2 °F 74% 30.29 in 10.0 mi NW 15.0 mph 21.9 mph N/A   Overcast
7:54 AM 28.0 °F 17.0 °F 22.1 °F 78% 30.30 in 5.0 mi North 13.8 mph 21.9 mph N/A Snow Light Snow
8:14 AM 25.7 °F 12.7 °F 21.0 °F 82% 30.31 in 4.0 mi North 17.3 mph 23.0 mph N/A Snow Light Snow
8:34 AM 25.7 °F 15.1 °F 19.9 °F 79% 30.32 in 7.0 mi NNW 11.5 mph 21.9 mph N/A Snow Light Snow
8:54 AM 25.7 °F 14.6 °F 15.3 °F 65% 30.32 in 10.0 mi North 12.7 mph 26.5 mph N/A   Scattered Clouds
9:14 AM 25.9 °F 13.8 °F 14.4 °F 62% 30.33 in 10.0 mi NNW 15.0 mph 19.6 mph N/A   Scattered Clouds
9:34 AM 26.4 °F 13.6 °F 14.7 °F 61% 30.33 in 10.0 mi NNW 17.3 mph 24.2 mph N/A   Scattered Clouds
9:54 AM 26.8 °F 14.1 °F 14.2 °F 59% 30.34 in 10.0 mi NNW 17.3 mph 28.8 mph N/A   Scattered Clouds
10:14 AM 25.5 °F 13.3 °F 12.9 °F 59% 30.35 in 10.0 mi NNW 15.0 mph 26.5 mph N/A   Mostly Cloudy
10:34 AM 25.3 °F 14.1 °F 14.2 °F 63% 30.36 in 10.0 mi NNW 12.7 mph 19.6 mph N/A   Overcast
10:54 AM 25.7 °F 13.5 °F 14.2 °F 62% 30.37 in 10.0 mi NW 15.0 mph 25.3 mph N/A   Mostly Cloudy
11:14 AM 26.2 °F 15.8 °F 15.8 °F 65% 30.37 in 10.0 mi NW 11.5 mph 20.7 mph N/A   Overcast
11:34 AM 25.2 °F 15.1 °F 17.4 °F 72% 30.37 in 10.0 mi NNW 10.4 mph 19.6 mph N/A   Mostly Cloudy
11:54 AM 23.9 °F 9.9 °F 14.7 °F 68% 30.38 in 7.0 mi NNW 18.4 mph 35.7 mph N/A Snow Light Snow
12:14 PM 25.5 °F 12.4 °F 14.2 °F 62% 30.37 in 10.0 mi NW 17.3 mph 21.9 mph N/A   Overcast
12:34 PM 26.6 °F 13.4 °F 11.5 °F 53% 30.37 in 10.0 mi NNW 18.4 mph 27.6 mph N/A   Scattered Clouds
12:54 PM 25.7 °F 12.7 °F 8.2 °F 48% 30.37 in 10.0 mi NW 17.3 mph 26.5 mph N/A   Scattered Clouds
1:14 PM 27.7 °F 15.2 °F 9.9 °F 47% 30.37 in 10.0 mi NNW 17.3 mph 25.3 mph N/A   Mostly Cloudy
1:34 PM 26.4 °F 14.0 °F 13.5 °F 58% 30.38 in 10.0 mi NNW 16.1 mph - N/A   Overcast
1:54 PM 24.8 °F 12.9 °F 12.0 °F 58% 30.39 in 10.0 mi NNW 13.8 mph 24.2 mph N/A   Overcast
2:14 PM 25.5 °F 13.3 °F 11.5 °F 55% 30.39 in 10.0 mi NW 15.0 mph 21.9 mph N/A   Mostly Cloudy
2:34 PM 23.9 °F 11.7 °F 11.7 °F 60% 30.40 in 10.0 mi NW 13.8 mph 29.9 mph N/A   Mostly Cloudy
2:54 PM 24.6 °F 11.7 °F 10.4 °F 55% 30.40 in 10.0 mi NNW 16.1 mph 25.3 mph N/A   Scattered Clouds
3:14 PM 21.9 °F 8.7 °F 12.2 °F 66% 30.41 in 10.0 mi NNW 15.0 mph 20.7 mph N/A   Mostly Cloudy
3:34 PM 23.0 °F 8.7 °F 9.1 °F 55% 30.41 in 10.0 mi NW 18.4 mph 25.3 mph N/A   Scattered Clouds
3:54 PM 23.0 °F 12.4 °F 7.7 °F 52% 30.42 in 10.0 mi NW 10.4 mph 21.9 mph N/A   Clear
4:14 PM 23.2 °F 7.8 °F 6.8 °F 50% 30.43 in 10.0 mi NW 21.9 mph 29.9 mph N/A   Clear
4:34 PM 22.1 °F 9.5 °F 6.3 °F 51% 30.45 in 10.0 mi NW 13.8 mph 24.2 mph N/A   Clear
4:54 PM 21.2 °F 10.1 °F 7.9 °F 57% 30.46 in 10.0 mi NW 10.4 mph 29.9 mph N/A   Clear
5:14 PM 20.5 °F 8.0 °F 10.4 °F 65% 30.46 in 7.0 mi NNW 12.7 mph 20.7 mph N/A   Clear
5:34 PM 20.3 °F 7.2 °F 10.6 °F 66% 30.47 in 10.0 mi NNW 13.8 mph 20.7 mph N/A   Clear
5:54 PM 20.3 °F 7.2 °F 10.9 °F 67% 30.48 in 10.0 mi NW 13.8 mph 25.3 mph N/A   Clear
6:14 PM 19.8 °F 7.1 °F 12.2 °F 72% 30.48 in 10.0 mi NW 12.7 mph 23.0 mph N/A   Clear
6:34 PM 19.4 °F 7.9 °F 12.6 °F 75% 30.49 in 10.0 mi NW 10.4 mph 18.4 mph N/A   Clear
6:54 PM 19.4 °F 6.0 °F 11.3 °F 71% 30.49 in 10.0 mi NW 13.8 mph 20.7 mph N/A   Clear
7:14 PM 19.4 °F 6.6 °F 11.3 °F 71% 30.50 in 10.0 mi NW 12.7 mph 18.4 mph N/A   Clear
7:34 PM 19.2 °F 7.7 °F 11.3 °F 71% 30.50 in 10.0 mi NW 10.4 mph - N/A   Clear
7:54 PM 19.0 °F 8.2 °F 11.3 °F 72% 30.51 in 10.0 mi NW 9.2 mph - N/A   Clear
8:14 PM 18.9 °F 8.0 °F 11.7 °F 74% 30.52 in 10.0 mi NW 9.2 mph 16.1 mph N/A   Scattered Clouds
8:34 PM 18.5 °F 6.1 °F 12.2 °F 76% 30.52 in 10.0 mi NW 11.5 mph 17.3 mph N/A   Scattered Clouds
8:54 PM 18.3 °F 8.2 °F 12.2 °F 77% 30.52 in 10.0 mi NW 8.1 mph - N/A   Scattered Clouds
9:14 PM 18.3 °F 7.3 °F 12.2 °F 77% 30.52 in 10.0 mi NW 9.2 mph - N/A   Clear
9:34 PM 18.3 °F 6.6 °F 12.0 °F 76% 30.52 in 10.0 mi NW 10.4 mph 17.3 mph N/A   Clear
9:54 PM 18.0 °F 7.7 °F 12.0 °F 78% 30.52 in 10.0 mi NW 8.1 mph - N/A   Clear
10:14 PM 18.0 °F 6.9 °F 11.8 °F 77% 30.52 in 10.0 mi NW 9.2 mph - N/A   Clear
10:34 PM 17.8 °F 7.5 °F 11.7 °F 77% 30.52 in 10.0 mi NW 8.1 mph - N/A   Clear
10:54 PM 17.8 °F 7.5 °F 12.0 °F 78% 30.52 in 10.0 mi NW 8.1 mph - N/A   Clear
11:14 PM 17.6 °F 7.3 °F 12.2 °F 79% 30.52 in 10.0 mi NW 8.1 mph - N/A   Clear
11:34 PM 17.6 °F 7.3 °F 12.4 °F 80% 30.53 in 10.0 mi NW 8.1 mph - N/A Snow Light Snow
11:54 PM 17.2 °F 7.8 °F 13.1 °F 84% 30.53 in 10.0 mi NW 6.9 mph - N/A Snow Light Snow